Погода в Оушен-Сити

США     38°19′53″N   75°06′25″W
темп.,
°C
ветер,
м/с
пор.,
м/с
влажн.,
%
обл.,
%
осадки,
мм/ч
давл.,
гПа
погр.,
м
28 июля, ср
ср2823:00+24ююз45870 0.0 101557
02:00+24юз56870 0.0 101477
05:00+24з34890 0.0 101462
08:00+24сз34905 0.0 101472
11:00+24св55850 0.0 1015106
14:00+23всв78820 0.0 1015151
17:00+24в45840 0.0 1014143
20:00+24вюв67860 0.0 1014190
29 июля, чт
чт2923:00+24вюв568692 0.0 1016164
02:00+24вюв338611 0.0 101568
05:00+24ююв448629 0.0 101584
08:00+24ююв5688100 0.0 1015130
11:00+24ю6881100 0.0 1015223
14:00+24ююз71186100 0.0 1014297
17:00+23ю6108866 1.4 1011210
20:00+24ююз9139295 3.8 1011333
30 июля, пт
пт3023:00+24юз10149199 0.1 1011324
02:00+23ююз11149637 0.8 1010373
05:00+24зюз710940 0.0 1009311
08:00+23зюз58923 0.0 1009205
11:00+25юз448086 0.0 100936
14:00+25ююз3384100 0.2 100831
17:00+26ссв5874100 0.4 1010106
20:00+26ссз566812 0.4 101161
31 июля, сб
сб3123:00+24с1113701 0.0 1014498
02:00+22с1011580 0.0 1016807
05:00+21ссв9953100 0.0 1016775
08:00+20с6751100 0.0 1018769
11:00+21с5655100 0.0 1019822
14:00+20св66572 0.0 1018438
17:00+21юв445061 0.0 1018432
20:00+22ююв4452100 0.0 1018331
1 августа, вс
вс123:00+22ююв5556100 0.0 1018374
02:00+22ю5558100 0.0 1018539
05:00+22ююз55601 0.0 1017492
08:00+22ю456022 0.0 1017461
11:00+23ююв6762100 0.0 1017616
14:00+23ю7867100 0.0 1016794
17:00+23ю6972100 0.0 1014609
20:00+23ю69813 0.1 1013455